Time,TemperatureF,DewpointF,PressureIn,WindDirection,WindDirectionDegrees,WindSpeedMPH,WindSpeedGustMPH,Humidity,HourlyPrecipIn,Conditions,Clouds,dailyrainin,SolarRadiationWatts/m^2,SoftwareType,DateUTC
2013-07-19 00:12:00,80.8,77.0,29.96,WNW,289,0.0,1.0,87,0.00,,,0.00,0,weatherlink.com 1.10,2013-07-19 04:12:00,
2013-07-19 00:27:00,80.9,77.0,29.96,South,183,2.0,2.0,87,0.00,,,0.00,0,weatherlink.com 1.10,2013-07-19 04:27:00,
2013-07-19 00:42:00,81.1,77.0,29.97,WSW,245,0.0,2.0,87,0.00,,,0.00,0,weatherlink.com 1.10,2013-07-19 04:42:00,
2013-07-19 00:57:00,81.0,77.0,29.97,SW,233,1.0,1.0,87,0.00,,,0.00,0,weatherlink.com 1.10,2013-07-19 04:57:00,
2013-07-19 01:12:00,80.8,77.0,29.97,SW,233,0.0,2.0,87,0.00,,,0.00,0,weatherlink.com 1.10,2013-07-19 05:12:00,
2013-07-19 01:27:00,80.7,77.0,29.97,SW,236,0.0,3.0,88,0.00,,,0.00,0,weatherlink.com 1.10,2013-07-19 05:27:00,
2013-07-19 01:42:00,80.7,77.0,29.97,SW,236,0.0,2.0,88,0.00,,,0.00,0,weatherlink.com 1.10,2013-07-19 05:42:00,
2013-07-19 01:57:00,80.7,77.0,29.97,SSW,213,0.0,2.0,88,0.00,,,0.00,0,weatherlink.com 1.10,2013-07-19 05:57:00,
2013-07-19 02:12:00,80.8,77.0,29.97,SW,214,2.0,3.0,88,0.00,,,0.00,0,weatherlink.com 1.10,2013-07-19 06:12:00,
2013-07-19 02:27:00,80.9,77.0,29.97,NW,320,0.0,4.0,88,0.00,,,0.00,0,weatherlink.com 1.10,2013-07-19 06:27:00,
2013-07-19 02:42:00,80.7,77.0,29.96,NW,320,0.0,2.0,88,0.00,,,0.00,0,weatherlink.com 1.10,2013-07-19 06:42:00,
2013-07-19 02:57:00,80.8,77.0,29.96,South,181,0.0,4.0,88,0.00,,,0.00,0,weatherlink.com 1.10,2013-07-19 06:57:00,
2013-07-19 03:12:00,81.1,77.0,29.96,SSW,199,0.0,4.0,88,0.00,,,0.00,0,weatherlink.com 1.10,2013-07-19 07:12:00,
2013-07-19 03:27:00,81.1,77.0,29.95,West,277,0.0,7.0,88,0.00,,,0.00,0,weatherlink.com 1.10,2013-07-19 07:27:00,
2013-07-19 03:42:00,80.9,77.0,29.95,WNW,286,0.0,4.0,88,0.00,,,0.00,0,weatherlink.com 1.10,2013-07-19 07:42:00,
2013-07-19 03:57:00,80.7,77.0,29.96,WNW,286,1.0,4.0,88,0.00,,,0.00,0,weatherlink.com 1.10,2013-07-19 07:57:00,
2013-07-19 04:12:00,80.6,77.0,29.96,WNW,286,0.0,5.0,89,0.00,,,0.00,0,weatherlink.com 1.10,2013-07-19 08:12:00,
2013-07-19 04:27:00,80.4,77.0,29.96,WNW,286,1.0,4.0,89,0.00,,,0.00,0,weatherlink.com 1.10,2013-07-19 08:27:00,
2013-07-19 04:42:00,80.0,77.0,29.95,WNW,286,1.0,4.0,90,0.00,,,0.00,0,weatherlink.com 1.10,2013-07-19 08:42:00,
2013-07-19 04:57:00,79.8,77.0,29.96,WNW,286,0.0,5.0,90,0.00,,,0.00,0,weatherlink.com 1.10,2013-07-19 08:57:00,
2013-07-19 05:12:00,79.6,77.0,29.95,WNW,286,0.0,3.0,91,0.00,,,0.00,0,weatherlink.com 1.10,2013-07-19 09:12:00,
2013-07-19 05:27:00,79.4,77.0,29.95,WNW,286,0.0,2.0,92,0.00,,,0.00,0,weatherlink.com 1.10,2013-07-19 09:27:00,
2013-07-19 05:42:00,79.4,77.0,29.95,WNW,286,0.0,2.0,92,0.00,,,0.00,0,weatherlink.com 1.10,2013-07-19 09:42:00,
2013-07-19 05:57:00,79.3,77.0,29.95,West,270,0.0,4.0,92,0.00,,,0.00,7,weatherlink.com 1.10,2013-07-19 09:57:00,
2013-07-19 06:12:00,79.3,77.0,29.95,WSW,244,1.0,3.0,92,0.00,,,0.00,16,weatherlink.com 1.10,2013-07-19 10:12:00,
2013-07-19 06:27:00,79.4,77.0,29.95,SE,141,0.0,3.0,92,0.00,,,0.00,23,weatherlink.com 1.10,2013-07-19 10:27:00,
2013-07-19 06:42:00,79.5,77.0,29.95,SSE,151,0.0,3.0,92,0.00,,,0.00,32,weatherlink.com 1.10,2013-07-19 10:42:00,
2013-07-19 06:57:00,79.8,77.0,29.95,South,169,1.0,6.0,92,0.00,,,0.00,39,weatherlink.com 1.10,2013-07-19 10:57:00,
2013-07-19 07:13:00,80.2,78.0,29.95,WSW,244,2.0,4.0,92,0.00,,,0.00,46,weatherlink.com 1.10,2013-07-19 11:13:00,
2013-07-19 07:28:00,80.7,78.0,29.95,SSE,154,0.0,4.0,91,0.00,,,0.00,51,weatherlink.com 1.10,2013-07-19 11:28:00,
2013-07-19 07:43:00,81.5,78.0,29.96,SE,132,1.0,3.0,90,0.00,,,0.00,58,weatherlink.com 1.10,2013-07-19 11:43:00,
2013-07-19 07:58:00,82.3,79.0,29.96,SSE,159,1.0,6.0,89,0.00,,,0.00,69,weatherlink.com 1.10,2013-07-19 11:58:00,
2013-07-19 08:13:00,83.2,79.0,29.95,WNW,283,0.0,4.0,87,0.00,,,0.00,132,weatherlink.com 1.10,2013-07-19 12:13:00,
2013-07-19 08:28:00,84.0,80.0,29.95,WNW,296,0.0,5.0,86,0.00,,,0.00,95,weatherlink.com 1.10,2013-07-19 12:28:00,
2013-07-19 08:43:00,85.1,80.0,29.95,South,183,2.0,6.0,84,0.00,,,0.00,81,weatherlink.com 1.10,2013-07-19 12:43:00,
2013-07-19 08:58:00,86.1,80.0,29.95,WNW,293,4.0,7.0,81,0.00,,,0.00,81,weatherlink.com 1.10,2013-07-19 12:58:00,
2013-07-19 09:13:00,86.6,80.0,29.95,West,273,4.0,12.0,80,0.00,,,0.00,91,weatherlink.com 1.10,2013-07-19 13:13:00,
2013-07-19 09:28:00,87.4,80.0,29.95,South,170,0.0,10.0,79,0.00,,,0.00,102,weatherlink.com 1.10,2013-07-19 13:28:00,
2013-07-19 09:43:00,88.1,80.0,29.95,West,277,4.0,7.0,78,0.00,,,0.00,121,weatherlink.com 1.10,2013-07-19 13:43:00,
2013-07-19 09:58:00,88.7,80.0,29.95,WNW,300,5.0,9.0,76,0.00,,,0.00,246,weatherlink.com 1.10,2013-07-19 13:58:00,
2013-07-19 10:13:00,89.1,80.0,29.94,South,172,6.0,10.0,75,0.00,,,0.00,633,weatherlink.com 1.10,2013-07-19 14:13:00,
2013-07-19 10:28:00,90.4,81.0,29.94,South,184,1.0,7.0,74,0.00,,,0.00,371,weatherlink.com 1.10,2013-07-19 14:28:00,
2013-07-19 10:43:00,91.0,80.0,29.94,SSE,155,1.0,9.0,71,0.00,,,0.00,700,weatherlink.com 1.10,2013-07-19 14:43:00,
2013-07-19 10:58:00,91.0,80.0,29.94,WNW,295,9.0,10.0,70,0.00,,,0.00,747,weatherlink.com 1.10,2013-07-19 14:58:00,
2013-07-19 11:13:00,92.0,80.0,29.94,WNW,286,4.0,9.0,68,0.00,,,0.00,749,weatherlink.com 1.10,2013-07-19 15:13:00,
2013-07-19 11:29:00,92.3,81.0,29.93,WNW,285,6.0,10.0,69,0.00,,,0.00,821,weatherlink.com 1.10,2013-07-19 15:29:00,
2013-07-19 11:44:00,92.5,80.0,29.93,SSW,199,3.0,9.0,67,0.00,,,0.00,863,weatherlink.com 1.10,2013-07-19 15:44:00,
2013-07-19 11:59:00,93.6,80.0,29.92,South,188,3.0,10.0,65,0.00,,,0.00,865,weatherlink.com 1.10,2013-07-19 15:59:00,
2013-07-19 12:14:00,93.9,80.0,29.92,WNW,289,2.0,12.0,64,0.00,,,0.00,916,weatherlink.com 1.10,2013-07-19 16:14:00,
2013-07-19 12:29:00,94.3,79.0,29.91,West,279,1.0,9.0,61,0.00,,,0.00,951,weatherlink.com 1.10,2013-07-19 16:29:00,
2013-07-19 12:44:00,94.5,78.0,29.91,West,279,6.0,15.0,60,0.00,,,0.00,958,weatherlink.com 1.10,2013-07-19 16:44:00,
2013-07-19 12:59:00,95.0,77.0,29.91,WNW,288,5.0,12.0,56,0.00,,,0.00,902,weatherlink.com 1.10,2013-07-19 16:59:00,
2013-07-19 13:14:00,95.3,77.0,29.90,SE,146,5.0,10.0,56,0.00,,,0.00,891,weatherlink.com 1.10,2013-07-19 17:14:00,
2013-07-19 13:29:00,95.8,77.0,29.89,WNW,297,5.0,9.0,55,0.00,,,0.00,891,weatherlink.com 1.10,2013-07-19 17:29:00,
2013-07-19 13:44:00,95.4,77.0,29.89,WNW,299,0.0,10.0,56,0.00,,,0.00,914,weatherlink.com 1.10,2013-07-19 17:44:00,
2013-07-19 13:59:00,95.3,78.0,29.88,West,280,1.0,9.0,57,0.00,,,0.00,884,weatherlink.com 1.10,2013-07-19 17:59:00,
2013-07-19 14:14:00,96.0,77.0,29.88,SW,219,2.0,11.0,55,0.00,,,0.00,912,weatherlink.com 1.10,2013-07-19 18:14:00,
2013-07-19 14:29:00,95.7,76.0,29.87,WNW,291,3.0,9.0,54,0.00,,,0.00,207,weatherlink.com 1.10,2013-07-19 18:29:00,
2013-07-19 14:44:00,96.1,77.0,29.86,WNW,287,10.0,10.0,54,0.00,,,0.00,216,weatherlink.com 1.10,2013-07-19 18:44:00,
2013-07-19 14:59:00,96.3,76.0,29.86,SSW,208,5.0,11.0,53,0.00,,,0.00,297,weatherlink.com 1.10,2013-07-19 18:59:00,
2013-07-19 15:14:00,96.4,75.0,29.86,WNW,285,3.0,14.0,50,0.00,,,0.00,751,weatherlink.com 1.10,2013-07-19 19:14:00,
2013-07-19 15:29:00,96.4,77.0,29.85,WNW,290,5.0,13.0,53,0.00,,,0.00,759,weatherlink.com 1.10,2013-07-19 19:29:00,
2013-07-19 15:44:00,96.6,77.0,29.85,SW,231,1.0,12.0,54,0.00,,,0.00,687,weatherlink.com 1.10,2013-07-19 19:44:00,
2013-07-19 15:59:00,97.2,76.0,29.84,SSW,209,1.0,10.0,51,0.00,,,0.00,647,weatherlink.com 1.10,2013-07-19 19:59:00,
2013-07-19 16:14:00,96.5,76.0,29.83,West,281,4.0,13.0,52,0.00,,,0.00,613,weatherlink.com 1.10,2013-07-19 20:14:00,
2013-07-19 16:29:00,96.6,77.0,29.83,WNW,302,2.0,11.0,54,0.00,,,0.00,592,weatherlink.com 1.10,2013-07-19 20:29:00,
2013-07-19 16:44:00,96.5,77.0,29.83,SE,136,3.0,12.0,53,0.00,,,0.00,234,weatherlink.com 1.10,2013-07-19 20:44:00,
2013-07-19 16:59:00,95.6,77.0,29.82,West,276,7.0,15.0,55,0.00,,,0.00,512,weatherlink.com 1.10,2013-07-19 20:59:00,
2013-07-19 17:14:00,95.4,77.0,29.82,WNW,294,1.0,12.0,55,0.00,,,0.00,165,weatherlink.com 1.10,2013-07-19 21:14:00,
2013-07-19 17:29:00,95.3,78.0,29.81,South,182,3.0,12.0,57,0.00,,,0.00,461,weatherlink.com 1.10,2013-07-19 21:29:00,
2013-07-19 17:44:00,94.6,77.0,29.81,South,174,1.0,12.0,57,0.00,,,0.00,338,weatherlink.com 1.10,2013-07-19 21:44:00,
2013-07-19 17:59:00,94.6,78.0,29.81,South,189,0.0,11.0,58,0.00,,,0.00,288,weatherlink.com 1.10,2013-07-19 21:59:00,
2013-07-19 18:15:00,94.2,78.0,29.81,South,182,1.0,9.0,60,0.00,,,0.00,105,weatherlink.com 1.10,2013-07-19 22:15:00,
2013-07-19 18:29:00,94.0,79.0,29.81,SW,222,1.0,8.0,61,0.00,,,0.00,234,weatherlink.com 1.10,2013-07-19 22:29:00,
2013-07-19 18:44:00,93.1,78.0,29.81,SE,146,4.0,14.0,62,0.00,,,0.00,149,weatherlink.com 1.10,2013-07-19 22:44:00,
2013-07-19 18:59:00,92.3,79.0,29.82,NNE,13,0.0,7.0,66,0.00,,,0.00,116,weatherlink.com 1.10,2013-07-19 22:59:00,
2013-07-19 19:14:00,91.2,79.0,29.82,SSE,162,2.0,9.0,67,0.00,,,0.00,79,weatherlink.com 1.10,2013-07-19 23:14:00,
2013-07-19 19:30:00,90.9,78.0,29.81,East,101,8.0,11.0,66,0.00,,,0.00,44,weatherlink.com 1.10,2013-07-19 23:30:00,
2013-07-19 19:46:00,90.0,78.0,29.81,SSE,152,0.0,8.0,67,0.00,,,0.00,11,weatherlink.com 1.10,2013-07-19 23:46:00,
2013-07-19 20:00:00,89.2,77.0,29.81,South,174,0.0,9.0,68,0.00,,,0.00,5,weatherlink.com 1.10,2013-07-20 00:00:00,
2013-07-19 20:15:00,88.8,77.0,29.82,South,182,5.0,9.0,68,0.00,,,0.00,0,weatherlink.com 1.10,2013-07-20 00:15:00,
2013-07-19 20:30:00,88.3,77.0,29.83,SSW,199,2.0,8.0,69,0.00,,,0.00,0,weatherlink.com 1.10,2013-07-20 00:30:00,
2013-07-19 20:45:00,87.7,77.0,29.84,South,180,1.0,8.0,70,0.00,,,0.00,0,weatherlink.com 1.10,2013-07-20 00:45:00,
2013-07-19 21:00:00,87.3,77.0,29.84,SSE,161,4.0,7.0,71,0.00,,,0.00,0,weatherlink.com 1.10,2013-07-20 01:00:00,
2013-07-19 21:15:00,86.9,77.0,29.84,South,174,5.0,5.0,72,0.00,,,0.00,0,weatherlink.com 1.10,2013-07-20 01:15:00,
2013-07-19 21:30:00,86.4,77.0,29.85,WSW,246,0.0,7.0,73,0.00,,,0.00,0,weatherlink.com 1.10,2013-07-20 01:30:00,
2013-07-19 21:45:00,86.0,77.0,29.86,West,263,0.0,4.0,74,0.00,,,0.00,0,weatherlink.com 1.10,2013-07-20 01:45:00,
2013-07-19 22:00:00,85.6,77.0,29.85,South,183,1.0,3.0,75,0.00,,,0.00,0,weatherlink.com 1.10,2013-07-20 02:00:00,
2013-07-19 22:15:00,85.3,77.0,29.84,South,174,0.0,5.0,76,0.00,,,0.00,0,weatherlink.com 1.10,2013-07-20 02:15:00,
2013-07-19 22:30:00,84.8,77.0,29.83,South,188,0.0,6.0,77,0.00,,,0.00,0,weatherlink.com 1.10,2013-07-20 02:30:00,
2013-07-19 22:45:00,84.5,77.0,29.82,SSE,158,0.0,3.0,78,0.00,,,0.00,0,weatherlink.com 1.10,2013-07-20 02:45:00,
2013-07-19 23:00:00,84.3,77.0,29.82,SSW,198,1.0,5.0,79,0.00,,,0.00,0,weatherlink.com 1.10,2013-07-20 03:00:00,
2013-07-19 23:15:00,84.1,77.0,29.81,SSE,159,1.0,7.0,80,0.00,,,0.00,0,weatherlink.com 1.10,2013-07-20 03:15:00,
2013-07-19 23:30:00,84.1,77.0,29.81,South,182,0.0,6.0,80,0.00,,,0.00,0,weatherlink.com 1.10,2013-07-20 03:30:00,
2013-07-19 23:45:00,84.0,77.0,29.81,SSW,200,0.0,5.0,80,0.00,,,0.00,0,weatherlink.com 1.10,2013-07-20 03:45:00,